owner,sensor,date,latitude,longitude,relative_humidity,qcFlag 
DISL,ioos:station:DISL:CATA:1,2019-08-01T00:21:00Z,30.3085,-88.1395,55.65,11111222 
DISL,ioos:station:DISL:CATA:1,2019-08-01T01:21:00Z,30.3085,-88.1395,57.02,11111222 
DISL,ioos:station:DISL:CATA:1,2019-08-01T02:21:00Z,30.3085,-88.1395,58.63,11111222 
DISL,ioos:station:DISL:CATA:1,2019-08-01T03:21:00Z,30.3085,-88.1395,57.61,11111222 
DISL,ioos:station:DISL:CATA:1,2019-08-01T04:21:00Z,30.3085,-88.1395,60.96,11111222 
DISL,ioos:station:DISL:CATA:1,2019-08-01T05:21:00Z,30.3085,-88.1395,76.69,11111222 
DISL,ioos:station:DISL:CATA:1,2019-08-01T06:21:00Z,30.3085,-88.1395,72.08,11111222 
DISL,ioos:station:DISL:CATA:1,2019-08-01T07:21:00Z,30.3085,-88.1395,73.55,11111222 
DISL,ioos:station:DISL:CATA:1,2019-08-01T08:21:00Z,30.3085,-88.1395,77.84,11111222 
DISL,ioos:station:DISL:CATA:1,2019-08-01T09:21:00Z,30.3085,-88.1395,78.59,11111222 
DISL,ioos:station:DISL:CATA:1,2019-08-01T10:21:00Z,30.3085,-88.1395,77.53,11111222 
DISL,ioos:station:DISL:CATA:1,2019-08-01T11:21:00Z,30.3085,-88.1395,78.69,11111222 
DISL,ioos:station:DISL:CATA:1,2019-08-01T12:21:00Z,30.3085,-88.1395,72.95,11111222 
DISL,ioos:station:DISL:CATA:1,2019-08-01T13:21:00Z,30.3085,-88.1395,59.75,11111222 
DISL,ioos:station:DISL:CATA:1,2019-08-01T14:21:00Z,30.3085,-88.1395,60.74,11111222 
DISL,ioos:station:DISL:CATA:1,2019-08-01T15:21:00Z,30.3085,-88.1395,62.28,11111222 
DISL,ioos:station:DISL:CATA:1,2019-08-01T16:21:00Z,30.3085,-88.1395,59.61,11111222 
DISL,ioos:station:DISL:CATA:1,2019-08-01T17:21:00Z,30.3085,-88.1395,60.5,11111222 
DISL,ioos:station:DISL:CATA:1,2019-08-01T18:21:00Z,30.3085,-88.1395,58.65,11111222 
DISL,ioos:station:DISL:CATA:1,2019-08-01T19:21:00Z,30.3085,-88.1395,61.9,11111222 
DISL,ioos:station:DISL:CATA:1,2019-08-01T20:21:00Z,30.3085,-88.1395,63.83,11111222 
DISL,ioos:station:DISL:CATA:1,2019-08-01T21:21:00Z,30.3085,-88.1395,67.26,11111222 
DISL,ioos:station:DISL:CATA:1,2019-08-01T22:21:00Z,30.3085,-88.1395,68.6,11111222 
DISL,ioos:station:DISL:CATA:1,2019-08-01T23:21:00Z,30.3085,-88.1395,72.71,11111222 
DISL,ioos:station:DISL:CATA:1,2019-08-02T00:21:00Z,30.3085,-88.1395,73.0,11111222 
DISL,ioos:station:DISL:CATA:1,2019-08-02T01:21:00Z,30.3085,-88.1395,72.93,11111222 
DISL,ioos:station:DISL:CATA:1,2019-08-02T02:21:00Z,30.3085,-88.1395,76.4,11111222 
DISL,ioos:station:DISL:CATA:1,2019-08-02T03:21:00Z,30.3085,-88.1395,81.7,11111222 
DISL,ioos:station:DISL:CATA:1,2019-08-02T04:21:00Z,30.3085,-88.1395,69.89,11111222 
DISL,ioos:station:DISL:CATA:1,2019-08-02T05:21:00Z,30.3085,-88.1395,73.75,11111222 
DISL,ioos:station:DISL:CATA:1,2019-08-02T06:21:00Z,30.3085,-88.1395,66.69,11111222 
DISL,ioos:station:DISL:CATA:1,2019-08-02T07:21:00Z,30.3085,-88.1395,65.15,11111222 
DISL,ioos:station:DISL:CATA:1,2019-08-02T08:21:00Z,30.3085,-88.1395,69.16,11111222 
DISL,ioos:station:DISL:CATA:1,2019-08-02T09:21:00Z,30.3085,-88.1395,83.0,11111222 
DISL,ioos:station:DISL:CATA:1,2019-08-02T10:21:00Z,30.3085,-88.1395,85.2,11111222 
DISL,ioos:station:DISL:CATA:1,2019-08-02T11:21:00Z,30.3085,-88.1395,66.07,11111222 
DISL,ioos:station:DISL:CATA:1,2019-08-02T12:21:00Z,30.3085,-88.1395,75.9,11111222 
DISL,ioos:station:DISL:CATA:1,2019-08-02T13:21:00Z,30.3085,-88.1395,56.34,11111222 
DISL,ioos:station:DISL:CATA:1,2019-08-02T14:21:00Z,30.3085,-88.1395,52.49,11111222 
DISL,ioos:station:DISL:CATA:1,2019-08-02T15:21:00Z,30.3085,-88.1395,49.26,11111222 
DISL,ioos:station:DISL:CATA:1,2019-08-02T16:21:00Z,30.3085,-88.1395,67.72,11111222 
DISL,ioos:station:DISL:CATA:1,2019-08-02T17:21:00Z,30.3085,-88.1395,67.69,11111222 
DISL,ioos:station:DISL:CATA:1,2019-08-02T18:21:00Z,30.3085,-88.1395,71.65,11111222 
DISL,ioos:station:DISL:CATA:1,2019-08-02T19:21:00Z,30.3085,-88.1395,68.77,11111222 
DISL,ioos:station:DISL:CATA:1,2019-08-02T20:21:00Z,30.3085,-88.1395,66.92,11111222 
DISL,ioos:station:DISL:CATA:1,2019-08-02T21:21:00Z,30.3085,-88.1395,71.55,11111222 
DISL,ioos:station:DISL:CATA:1,2019-08-02T22:21:00Z,30.3085,-88.1395,77.39,11111222 
DISL,ioos:station:DISL:CATA:1,2019-08-02T23:21:00Z,30.3085,-88.1395,78.67,11111222 
DISL,ioos:station:DISL:CATA:1,2019-08-03T00:21:00Z,30.3085,-88.1395,83.7,11111222 
DISL,ioos:station:DISL:CATA:1,2019-08-03T01:21:00Z,30.3085,-88.1395,84.6,11111222 
DISL,ioos:station:DISL:CATA:1,2019-08-03T02:21:00Z,30.3085,-88.1395,82.7,11111222 
DISL,ioos:station:DISL:CATA:1,2019-08-03T03:21:00Z,30.3085,-88.1395,71.47,11111222 
DISL,ioos:station:DISL:CATA:1,2019-08-03T04:21:00Z,30.3085,-88.1395,70.61,11111222 
DISL,ioos:station:DISL:CATA:1,2019-08-03T05:21:00Z,30.3085,-88.1395,71.02,11111222 
DISL,ioos:station:DISL:CATA:1,2019-08-03T06:21:00Z,30.3085,-88.1395,69.86,11111222 
DISL,ioos:station:DISL:CATA:1,2019-08-03T07:21:00Z,30.3085,-88.1395,74.28,11111222 
DISL,ioos:station:DISL:CATA:1,2019-08-03T08:21:00Z,30.3085,-88.1395,86.4,11111222 
DISL,ioos:station:DISL:CATA:1,2019-08-03T09:21:00Z,30.3085,-88.1395,86.1,11111222 
DISL,ioos:station:DISL:CATA:1,2019-08-03T10:21:00Z,30.3085,-88.1395,82.6,11111222 
DISL,ioos:station:DISL:CATA:1,2019-08-03T11:21:00Z,30.3085,-88.1395,77.67,11111222 
DISL,ioos:station:DISL:CATA:1,2019-08-03T12:21:00Z,30.3085,-88.1395,75.11,11111222 
DISL,ioos:station:DISL:CATA:1,2019-08-03T13:21:00Z,30.3085,-88.1395,72.88,11111222 
DISL,ioos:station:DISL:CATA:1,2019-08-03T14:21:00Z,30.3085,-88.1395,70.3,11111222 
DISL,ioos:station:DISL:CATA:1,2019-08-03T15:21:00Z,30.3085,-88.1395,66.56,11111222 
DISL,ioos:station:DISL:CATA:1,2019-08-03T16:21:00Z,30.3085,-88.1395,66.76,11111222 
DISL,ioos:station:DISL:CATA:1,2019-08-03T17:21:00Z,30.3085,-88.1395,65.36,11111222 
DISL,ioos:station:DISL:CATA:1,2019-08-03T18:21:00Z,30.3085,-88.1395,67.0,11111222 
DISL,ioos:station:DISL:CATA:1,2019-08-03T19:21:00Z,30.3085,-88.1395,67.21,11111222 
DISL,ioos:station:DISL:CATA:1,2019-08-03T20:21:00Z,30.3085,-88.1395,59.44,11111222 
DISL,ioos:station:DISL:CATA:1,2019-08-03T21:21:00Z,30.3085,-88.1395,65.58,11111222 
DISL,ioos:station:DISL:CATA:1,2019-08-03T22:21:00Z,30.3085,-88.1395,62.33,11111222 
DISL,ioos:station:DISL:CATA:1,2019-08-03T23:21:00Z,30.3085,-88.1395,65.45,11111222 
DISL,ioos:station:DISL:CATA:1,2019-08-04T00:21:00Z,30.3085,-88.1395,68.47,11111222 
DISL,ioos:station:DISL:CATA:1,2019-08-04T01:21:00Z,30.3085,-88.1395,68.23,11111222 
DISL,ioos:station:DISL:CATA:1,2019-08-04T02:21:00Z,30.3085,-88.1395,67.16,11111222 
DISL,ioos:station:DISL:CATA:1,2019-08-04T03:21:00Z,30.3085,-88.1395,67.2,11111222 
DISL,ioos:station:DISL:CATA:1,2019-08-04T04:21:00Z,30.3085,-88.1395,67.51,11111222 
DISL,ioos:station:DISL:CATA:1,2019-08-04T05:21:00Z,30.3085,-88.1395,66.14,11111222 
DISL,ioos:station:DISL:CATA:1,2019-08-04T06:21:00Z,30.3085,-88.1395,66.07,11111222 
DISL,ioos:station:DISL:CATA:1,2019-08-04T07:21:00Z,30.3085,-88.1395,65.9,11111222 
DISL,ioos:station:DISL:CATA:1,2019-08-04T08:21:00Z,30.3085,-88.1395,65.62,11111222 
DISL,ioos:station:DISL:CATA:1,2019-08-04T09:21:00Z,30.3085,-88.1395,80.0,11111222 
DISL,ioos:station:DISL:CATA:1,2019-08-04T10:21:00Z,30.3085,-88.1395,82.1,11111222 
DISL,ioos:station:DISL:CATA:1,2019-08-04T11:21:00Z,30.3085,-88.1395,77.12,11111222 
DISL,ioos:station:DISL:CATA:1,2019-08-04T12:21:00Z,30.3085,-88.1395,68.77,11111222 
DISL,ioos:station:DISL:CATA:1,2019-08-04T13:21:00Z,30.3085,-88.1395,69.61,11111222 
DISL,ioos:station:DISL:CATA:1,2019-08-04T14:21:00Z,30.3085,-88.1395,70.53,11111222 
DISL,ioos:station:DISL:CATA:1,2019-08-04T15:21:00Z,30.3085,-88.1395,73.96,11111222 
DISL,ioos:station:DISL:CATA:1,2019-08-04T16:21:00Z,30.3085,-88.1395,68.2,11111222 
DISL,ioos:station:DISL:CATA:1,2019-08-04T17:21:00Z,30.3085,-88.1395,63.37,11111222 
DISL,ioos:station:DISL:CATA:1,2019-08-04T18:21:00Z,30.3085,-88.1395,65.77,11111222 
DISL,ioos:station:DISL:CATA:1,2019-08-04T19:21:00Z,30.3085,-88.1395,65.53,11111222 
DISL,ioos:station:DISL:CATA:1,2019-08-04T20:20:00Z,30.3085,-88.1395,70.94,11111222 
DISL,ioos:station:DISL:CATA:1,2019-08-04T21:20:00Z,30.3085,-88.1395,64.72,11111222 
DISL,ioos:station:DISL:CATA:1,2019-08-04T22:20:00Z,30.3085,-88.1395,68.64,11111222 
DISL,ioos:station:DISL:CATA:1,2019-08-04T23:20:00Z,30.3085,-88.1395,71.62,11111222 
DISL,ioos:station:DISL:CATA:1,2019-08-05T00:20:00Z,30.3085,-88.1395,68.88,11111222 
DISL,ioos:station:DISL:CATA:1,2019-08-05T01:20:00Z,30.3085,-88.1395,67.92,11111222 
DISL,ioos:station:DISL:CATA:1,2019-08-05T02:20:00Z,30.3085,-88.1395,67.71,11111222 
DISL,ioos:station:DISL:CATA:1,2019-08-05T03:20:00Z,30.3085,-88.1395,78.19,11111222 
DISL,ioos:station:DISL:CATA:1,2019-08-05T04:20:00Z,30.3085,-88.1395,79.41,11111222 
DISL,ioos:station:DISL:CATA:1,2019-08-05T05:20:00Z,30.3085,-88.1395,78.22,11111222 
DISL,ioos:station:DISL:CATA:1,2019-08-05T06:20:00Z,30.3085,-88.1395,81.6,11111222 
DISL,ioos:station:DISL:CATA:1,2019-08-05T07:20:00Z,30.3085,-88.1395,77.69,11111222 
DISL,ioos:station:DISL:CATA:1,2019-08-05T09:43:00Z,30.3085,-88.1395,73.86,11111222 
DISL,ioos:station:DISL:CATA:1,2019-08-05T10:47:00Z,30.3085,-88.1395,90.2,11111222 
DISL,ioos:station:DISL:CATA:1,2019-08-05T11:47:00Z,30.3085,-88.1395,90.8,11111222 
DISL,ioos:station:DISL:CATA:1,2019-08-05T12:45:00Z,30.3085,-88.1395,86.3,11111222 
DISL,ioos:station:DISL:CATA:1,2019-08-05T13:45:00Z,30.3085,-88.1395,87.2,11111222 
DISL,ioos:station:DISL:CATA:1,2019-08-05T14:45:00Z,30.3085,-88.1395,77.07,11111222 
DISL,ioos:station:DISL:CATA:1,2019-08-05T15:45:00Z,30.3085,-88.1395,77.61,11111222 
DISL,ioos:station:DISL:CATA:1,2019-08-05T16:45:00Z,30.3085,-88.1395,73.84,11111222 
DISL,ioos:station:DISL:CATA:1,2019-08-05T17:45:00Z,30.3085,-88.1395,74.32,11111222 
DISL,ioos:station:DISL:CATA:1,2019-08-05T18:45:00Z,30.3085,-88.1395,74.8,11111222 
DISL,ioos:station:DISL:CATA:1,2019-08-05T19:45:00Z,30.3085,-88.1395,72.26,11111222 
DISL,ioos:station:DISL:CATA:1,2019-08-05T20:45:00Z,30.3085,-88.1395,75.9,11111222 
DISL,ioos:station:DISL:CATA:1,2019-08-05T21:45:00Z,30.3085,-88.1395,73.36,11111222 
DISL,ioos:station:DISL:CATA:1,2019-08-05T22:45:00Z,30.3085,-88.1395,74.39,11111222 
DISL,ioos:station:DISL:CATA:1,2019-08-05T23:45:00Z,30.3085,-88.1395,74.19,11111222 
DISL,ioos:station:DISL:CATA:1,2019-08-06T00:45:00Z,30.3085,-88.1395,71.51,11111222 
DISL,ioos:station:DISL:CATA:1,2019-08-06T01:45:00Z,30.3085,-88.1395,76.58,11111222 
DISL,ioos:station:DISL:CATA:1,2019-08-06T02:45:00Z,30.3085,-88.1395,75.35,11111222 
DISL,ioos:station:DISL:CATA:1,2019-08-06T03:45:00Z,30.3085,-88.1395,71.45,11111222 
DISL,ioos:station:DISL:CATA:1,2019-08-06T04:45:00Z,30.3085,-88.1395,77.03,11111222 
DISL,ioos:station:DISL:CATA:1,2019-08-06T05:45:00Z,30.3085,-88.1395,77.82,11111222 
DISL,ioos:station:DISL:CATA:1,2019-08-06T06:45:00Z,30.3085,-88.1395,75.08,11111222 
DISL,ioos:station:DISL:CATA:1,2019-08-06T07:45:00Z,30.3085,-88.1395,75.76,11111222 
DISL,ioos:station:DISL:CATA:1,2019-08-06T08:45:00Z,30.3085,-88.1395,79.6,11111222 
DISL,ioos:station:DISL:CATA:1,2019-08-06T09:45:00Z,30.3085,-88.1395,77.3,11111222 
DISL,ioos:station:DISL:CATA:1,2019-08-06T10:45:00Z,30.3085,-88.1395,82.2,11111222 
DISL,ioos:station:DISL:CATA:1,2019-08-06T11:45:00Z,30.3085,-88.1395,78.69,11111222 
DISL,ioos:station:DISL:CATA:1,2019-08-06T12:45:00Z,30.3085,-88.1395,74.95,11111222 
DISL,ioos:station:DISL:CATA:1,2019-08-06T13:45:00Z,30.3085,-88.1395,82.4,11111222 
DISL,ioos:station:DISL:CATA:1,2019-08-06T14:45:00Z,30.3085,-88.1395,81.9,11111222 
DISL,ioos:station:DISL:CATA:1,2019-08-06T15:45:00Z,30.3085,-88.1395,80.5,11111222 
DISL,ioos:station:DISL:CATA:1,2019-08-06T16:45:00Z,30.3085,-88.1395,77.43,11111222 
DISL,ioos:station:DISL:CATA:1,2019-08-06T17:45:00Z,30.3085,-88.1395,76.05,11111222 
DISL,ioos:station:DISL:CATA:1,2019-08-06T18:45:00Z,30.3085,-88.1395,75.74,11111222 
DISL,ioos:station:DISL:CATA:1,2019-08-06T19:45:00Z,30.3085,-88.1395,74.78,11111222 
DISL,ioos:station:DISL:CATA:1,2019-08-06T20:45:00Z,30.3085,-88.1395,73.99,11111222 
DISL,ioos:station:DISL:CATA:1,2019-08-06T21:45:00Z,30.3085,-88.1395,70.33,11111222 
DISL,ioos:station:DISL:CATA:1,2019-08-06T22:45:00Z,30.3085,-88.1395,74.87,11111222 
DISL,ioos:station:DISL:CATA:1,2019-08-06T23:45:00Z,30.3085,-88.1395,73.71,11111222 
DISL,ioos:station:DISL:CATA:1,2019-08-07T00:45:00Z,30.3085,-88.1395,73.33,11111222 
DISL,ioos:station:DISL:CATA:1,2019-08-07T01:45:00Z,30.3085,-88.1395,65.69,11111222 
DISL,ioos:station:DISL:CATA:1,2019-08-07T02:45:00Z,30.3085,-88.1395,62.61,11111222 
DISL,ioos:station:DISL:CATA:1,2019-08-07T03:45:00Z,30.3085,-88.1395,65.35,11111222 
DISL,ioos:station:DISL:CATA:1,2019-08-07T04:45:00Z,30.3085,-88.1395,70.83,11111222 
DISL,ioos:station:DISL:CATA:1,2019-08-07T05:45:00Z,30.3085,-88.1395,72.23,11111222 
DISL,ioos:station:DISL:CATA:1,2019-08-07T06:45:00Z,30.3085,-88.1395,76.93,11111222 
DISL,ioos:station:DISL:CATA:1,2019-08-07T07:45:00Z,30.3085,-88.1395,76.72,11111222 
DISL,ioos:station:DISL:CATA:1,2019-08-07T08:45:00Z,30.3085,-88.1395,86.9,11111222 
DISL,ioos:station:DISL:CATA:1,2019-08-07T09:45:00Z,30.3085,-88.1395,88.4,11111222 
DISL,ioos:station:DISL:CATA:1,2019-08-07T10:45:00Z,30.3085,-88.1395,81.6,11111222 
DISL,ioos:station:DISL:CATA:1,2019-08-07T11:45:00Z,30.3085,-88.1395,78.28,11111222 
DISL,ioos:station:DISL:CATA:1,2019-08-07T12:45:00Z,30.3085,-88.1395,78.51,11111222 
DISL,ioos:station:DISL:CATA:1,2019-08-07T13:45:00Z,30.3085,-88.1395,75.73,11111222 
DISL,ioos:station:DISL:CATA:1,2019-08-07T14:45:00Z,30.3085,-88.1395,77.89,11111222 
DISL,ioos:station:DISL:CATA:1,2019-08-07T15:45:00Z,30.3085,-88.1395,79.28,11111222 
DISL,ioos:station:DISL:CATA:1,2019-08-07T16:45:00Z,30.3085,-88.1395,70.23,11111222 
DISL,ioos:station:DISL:CATA:1,2019-08-07T17:45:00Z,30.3085,-88.1395,75.09,11111222 
DISL,ioos:station:DISL:CATA:1,2019-08-07T18:45:00Z,30.3085,-88.1395,76.76,11111222 
DISL,ioos:station:DISL:CATA:1,2019-08-07T19:45:00Z,30.3085,-88.1395,73.82,11111222 
DISL,ioos:station:DISL:CATA:1,2019-08-07T20:45:00Z,30.3085,-88.1395,75.76,11111222 
DISL,ioos:station:DISL:CATA:1,2019-08-07T21:45:00Z,30.3085,-88.1395,71.93,11111222 
DISL,ioos:station:DISL:CATA:1,2019-08-07T22:45:00Z,30.3085,-88.1395,78.5,11111222 
DISL,ioos:station:DISL:CATA:1,2019-08-07T23:45:00Z,30.3085,-88.1395,71.58,11111222 
DISL,ioos:station:DISL:CATA:1,2019-08-08T00:45:00Z,30.3085,-88.1395,73.16,11111222 
DISL,ioos:station:DISL:CATA:1,2019-08-08T01:45:00Z,30.3085,-88.1395,78.02,11111222 
DISL,ioos:station:DISL:CATA:1,2019-08-08T02:45:00Z,30.3085,-88.1395,76.96,11111222 
DISL,ioos:station:DISL:CATA:1,2019-08-08T03:45:00Z,30.3085,-88.1395,76.76,11111222 
DISL,ioos:station:DISL:CATA:1,2019-08-08T04:45:00Z,30.3085,-88.1395,75.15,11111222 
DISL,ioos:station:DISL:CATA:1,2019-08-08T05:45:00Z,30.3085,-88.1395,78.26,11111222 
DISL,ioos:station:DISL:CATA:1,2019-08-08T06:45:00Z,30.3085,-88.1395,71.79,11111222 
DISL,ioos:station:DISL:CATA:1,2019-08-08T07:45:00Z,30.3085,-88.1395,73.36,11111222 
DISL,ioos:station:DISL:CATA:1,2019-08-08T08:45:00Z,30.3085,-88.1395,83.2,11111222 
DISL,ioos:station:DISL:CATA:1,2019-08-08T09:45:00Z,30.3085,-88.1395,80.6,11111222 
DISL,ioos:station:DISL:CATA:1,2019-08-08T10:45:00Z,30.3085,-88.1395,82.1,11111222 
DISL,ioos:station:DISL:CATA:1,2019-08-08T11:45:00Z,30.3085,-88.1395,84.9,11111222 
DISL,ioos:station:DISL:CATA:1,2019-08-08T12:45:00Z,30.3085,-88.1395,83.5,11111222 
DISL,ioos:station:DISL:CATA:1,2019-08-08T13:45:00Z,30.3085,-88.1395,83.2,11111222 
DISL,ioos:station:DISL:CATA:1,2019-08-08T14:45:00Z,30.3085,-88.1395,80.1,11111222 
DISL,ioos:station:DISL:CATA:1,2019-08-08T15:45:00Z,30.3085,-88.1395,72.87,11111222 
DISL,ioos:station:DISL:CATA:1,2019-08-08T16:45:00Z,30.3085,-88.1395,71.76,11111222 
DISL,ioos:station:DISL:CATA:1,2019-08-08T17:45:00Z,30.3085,-88.1395,73.07,11111222 
DISL,ioos:station:DISL:CATA:1,2019-08-08T18:45:00Z,30.3085,-88.1395,74.78,11111222 
DISL,ioos:station:DISL:CATA:1,2019-08-08T19:45:00Z,30.3085,-88.1395,73.65,11111222 
DISL,ioos:station:DISL:CATA:1,2019-08-08T20:45:00Z,30.3085,-88.1395,75.22,11111222 
DISL,ioos:station:DISL:CATA:1,2019-08-08T21:45:00Z,30.3085,-88.1395,73.04,11111222 
DISL,ioos:station:DISL:CATA:1,2019-08-08T22:45:00Z,30.3085,-88.1395,78.21,11111222 
DISL,ioos:station:DISL:CATA:1,2019-08-08T23:45:00Z,30.3085,-88.1395,73.74,11111222 
DISL,ioos:station:DISL:CATA:1,2019-08-09T00:45:00Z,30.3085,-88.1395,73.09,11111222 
DISL,ioos:station:DISL:CATA:1,2019-08-09T01:45:00Z,30.3085,-88.1395,75.9,11111222 
DISL,ioos:station:DISL:CATA:1,2019-08-09T02:45:00Z,30.3085,-88.1395,77.13,11111222 
DISL,ioos:station:DISL:CATA:1,2019-08-09T03:45:00Z,30.3085,-88.1395,76.04,11111222 
DISL,ioos:station:DISL:CATA:1,2019-08-09T04:45:00Z,30.3085,-88.1395,81.1,11111222 
DISL,ioos:station:DISL:CATA:1,2019-08-09T05:45:00Z,30.3085,-88.1395,82.6,11111222 
DISL,ioos:station:DISL:CATA:1,2019-08-09T06:45:00Z,30.3085,-88.1395,76.04,11111222 
DISL,ioos:station:DISL:CATA:1,2019-08-09T07:45:00Z,30.3085,-88.1395,82.1,11111222 
DISL,ioos:station:DISL:CATA:1,2019-08-09T08:45:00Z,30.3085,-88.1395,79.36,11111222 
DISL,ioos:station:DISL:CATA:1,2019-08-09T09:45:00Z,30.3085,-88.1395,78.3,11111222 
DISL,ioos:station:DISL:CATA:1,2019-08-09T10:45:00Z,30.3085,-88.1395,81.0,11111222 
DISL,ioos:station:DISL:CATA:1,2019-08-09T11:45:00Z,30.3085,-88.1395,83.5,11111222 
DISL,ioos:station:DISL:CATA:1,2019-08-09T12:45:00Z,30.3085,-88.1395,81.8,11111222 
DISL,ioos:station:DISL:CATA:1,2019-08-09T13:45:00Z,30.3085,-88.1395,82.4,11111222 
DISL,ioos:station:DISL:CATA:1,2019-08-09T14:45:00Z,30.3085,-88.1395,78.37,11111222 
DISL,ioos:station:DISL:CATA:1,2019-08-09T15:45:00Z,30.3085,-88.1395,76.18,11111222 
DISL,ioos:station:DISL:CATA:1,2019-08-09T16:45:00Z,30.3085,-88.1395,75.53,11111222 
DISL,ioos:station:DISL:CATA:1,2019-08-09T17:45:00Z,30.3085,-88.1395,78.03,11111222 
DISL,ioos:station:DISL:CATA:1,2019-08-09T18:45:00Z,30.3085,-88.1395,72.41,11111222 
DISL,ioos:station:DISL:CATA:1,2019-08-09T19:45:00Z,30.3085,-88.1395,73.79,11111222 
DISL,ioos:station:DISL:CATA:1,2019-08-09T20:45:00Z,30.3085,-88.1395,76.78,11111222 
DISL,ioos:station:DISL:CATA:1,2019-08-09T21:45:00Z,30.3085,-88.1395,76.34,11111222 
DISL,ioos:station:DISL:CATA:1,2019-08-09T22:45:00Z,30.3085,-88.1395,73.67,11111222 
DISL,ioos:station:DISL:CATA:1,2019-08-09T23:45:00Z,30.3085,-88.1395,71.51,11111222 
DISL,ioos:station:DISL:CATA:1,2019-08-10T00:45:00Z,30.3085,-88.1395,77.41,11111222 
DISL,ioos:station:DISL:CATA:1,2019-08-10T01:45:00Z,30.3085,-88.1395,75.66,11111222 
DISL,ioos:station:DISL:CATA:1,2019-08-10T02:45:00Z,30.3085,-88.1395,74.67,11111222 
DISL,ioos:station:DISL:CATA:1,2019-08-10T03:45:00Z,30.3085,-88.1395,79.46,11111222 
DISL,ioos:station:DISL:CATA:1,2019-08-10T04:45:00Z,30.3085,-88.1395,79.68,11111222 
DISL,ioos:station:DISL:CATA:1,2019-08-10T05:45:00Z,30.3085,-88.1395,80.5,11111222 
DISL,ioos:station:DISL:CATA:1,2019-08-10T06:45:00Z,30.3085,-88.1395,79.64,11111222 
DISL,ioos:station:DISL:CATA:1,2019-08-10T07:45:00Z,30.3085,-88.1395,73.57,11111222 
DISL,ioos:station:DISL:CATA:1,2019-08-10T08:45:00Z,30.3085,-88.1395,81.6,11111222 
DISL,ioos:station:DISL:CATA:1,2019-08-10T09:45:00Z,30.3085,-88.1395,81.5,11111222 
DISL,ioos:station:DISL:CATA:1,2019-08-10T10:45:00Z,30.3085,-88.1395,82.7,11111222 
DISL,ioos:station:DISL:CATA:1,2019-08-10T11:45:00Z,30.3085,-88.1395,79.65,11111222 
DISL,ioos:station:DISL:CATA:1,2019-08-10T12:45:00Z,30.3085,-88.1395,75.15,11111222 
DISL,ioos:station:DISL:CATA:1,2019-08-10T13:45:00Z,30.3085,-88.1395,75.9,11111222 
DISL,ioos:station:DISL:CATA:1,2019-08-10T14:45:00Z,30.3085,-88.1395,72.98,11111222 
DISL,ioos:station:DISL:CATA:1,2019-08-10T15:45:00Z,30.3085,-88.1395,70.43,11111222 
DISL,ioos:station:DISL:CATA:1,2019-08-10T16:45:00Z,30.3085,-88.1395,72.59,11111222 
DISL,ioos:station:DISL:CATA:1,2019-08-10T17:45:00Z,30.3085,-88.1395,70.19,11111222 
DISL,ioos:station:DISL:CATA:1,2019-08-10T18:45:00Z,30.3085,-88.1395,68.2,11111222 
DISL,ioos:station:DISL:CATA:1,2019-08-10T19:45:00Z,30.3085,-88.1395,77.89,11111222 
DISL,ioos:station:DISL:CATA:1,2019-08-10T20:45:00Z,30.3085,-88.1395,75.7,11111222 
DISL,ioos:station:DISL:CATA:1,2019-08-10T21:45:00Z,30.3085,-88.1395,79.7,11111222 
DISL,ioos:station:DISL:CATA:1,2019-08-10T22:45:00Z,30.3085,-88.1395,84.4,11111222 
DISL,ioos:station:DISL:CATA:1,2019-08-10T23:45:00Z,30.3085,-88.1395,81.6,11111222 
DISL,ioos:station:DISL:CATA:1,2019-08-11T00:45:00Z,30.3085,-88.1395,80.0,11111222 
DISL,ioos:station:DISL:CATA:1,2019-08-11T01:45:00Z,30.3085,-88.1395,80.4,11111222 
DISL,ioos:station:DISL:CATA:1,2019-08-11T02:45:00Z,30.3085,-88.1395,77.7,11111222 
DISL,ioos:station:DISL:CATA:1,2019-08-11T03:44:00Z,30.3085,-88.1395,77.97,11111222 
DISL,ioos:station:DISL:CATA:1,2019-08-11T04:44:00Z,30.3085,-88.1395,82.9,11111222 
DISL,ioos:station:DISL:CATA:1,2019-08-11T05:44:00Z,30.3085,-88.1395,76.47,11111222 
DISL,ioos:station:DISL:CATA:1,2019-08-11T06:44:00Z,30.3085,-88.1395,80.1,11111222 
DISL,ioos:station:DISL:CATA:1,2019-08-11T07:44:00Z,30.3085,-88.1395,76.32,11111222 
DISL,ioos:station:DISL:CATA:1,2019-08-11T08:44:00Z,30.3085,-88.1395,82.7,11111222 
DISL,ioos:station:DISL:CATA:1,2019-08-11T09:44:00Z,30.3085,-88.1395,88.3,11111222 
DISL,ioos:station:DISL:CATA:1,2019-08-11T10:44:00Z,30.3085,-88.1395,86.2,11111222 
DISL,ioos:station:DISL:CATA:1,2019-08-11T11:44:00Z,30.3085,-88.1395,85.1,11111222 
DISL,ioos:station:DISL:CATA:1,2019-08-11T12:44:00Z,30.3085,-88.1395,82.8,11111222 
DISL,ioos:station:DISL:CATA:1,2019-08-11T13:44:00Z,30.3085,-88.1395,78.47,11111222 
DISL,ioos:station:DISL:CATA:1,2019-08-11T14:44:00Z,30.3085,-88.1395,79.45,11111222 
DISL,ioos:station:DISL:CATA:1,2019-08-11T15:44:00Z,30.3085,-88.1395,80.4,11111222 
DISL,ioos:station:DISL:CATA:1,2019-08-11T16:44:00Z,30.3085,-88.1395,79.77,11111222 
DISL,ioos:station:DISL:CATA:1,2019-08-11T17:44:00Z,30.3085,-88.1395,77.11,11111222 
DISL,ioos:station:DISL:CATA:1,2019-08-11T18:44:00Z,30.3085,-88.1395,76.25,11111222 
DISL,ioos:station:DISL:CATA:1,2019-08-11T19:44:00Z,30.3085,-88.1395,88.3,11111222 
DISL,ioos:station:DISL:CATA:1,2019-08-11T20:44:00Z,30.3085,-88.1395,86.9,11111222 
DISL,ioos:station:DISL:CATA:1,2019-08-11T21:44:00Z,30.3085,-88.1395,77.16,11111222 
DISL,ioos:station:DISL:CATA:1,2019-08-11T22:44:00Z,30.3085,-88.1395,80.1,11111222 
DISL,ioos:station:DISL:CATA:1,2019-08-11T23:44:00Z,30.3085,-88.1395,84.9,11111222 
DISL,ioos:station:DISL:CATA:1,2019-08-12T00:44:00Z,30.3085,-88.1395,89.9,11111222 
DISL,ioos:station:DISL:CATA:1,2019-08-12T01:44:00Z,30.3085,-88.1395,87.0,11111222 
DISL,ioos:station:DISL:CATA:1,2019-08-12T02:44:00Z,30.3085,-88.1395,84.3,11111222 
DISL,ioos:station:DISL:CATA:1,2019-08-12T03:44:00Z,30.3085,-88.1395,83.1,11111222 
DISL,ioos:station:DISL:CATA:1,2019-08-12T04:14:00Z,30.3085,-88.1395,81.5,11111222 
DISL,ioos:station:DISL:CATA:1,2019-08-12T05:44:00Z,30.3085,-88.1395,81.0,11111222 
DISL,ioos:station:DISL:CATA:1,2019-08-12T06:44:00Z,30.3085,-88.1395,83.3,11111222 
DISL,ioos:station:DISL:CATA:1,2019-08-12T07:44:00Z,30.3085,-88.1395,80.7,11111222 
DISL,ioos:station:DISL:CATA:1,2019-08-12T09:44:00Z,30.3085,-88.1395,80.7,11111222 
DISL,ioos:station:DISL:CATA:1,2019-08-12T10:44:00Z,30.3085,-88.1395,82.0,11111222 
DISL,ioos:station:DISL:CATA:1,2019-08-12T11:44:00Z,30.3085,-88.1395,83.7,11111222 
DISL,ioos:station:DISL:CATA:1,2019-08-12T12:44:00Z,30.3085,-88.1395,84.1,11111222 
DISL,ioos:station:DISL:CATA:1,2019-08-12T13:44:00Z,30.3085,-88.1395,80.4,11111222 
DISL,ioos:station:DISL:CATA:1,2019-08-12T14:44:00Z,30.3085,-88.1395,79.63,11111222 
DISL,ioos:station:DISL:CATA:1,2019-08-12T15:44:00Z,30.3085,-88.1395,75.84,11111222 
DISL,ioos:station:DISL:CATA:1,2019-08-12T16:44:00Z,30.3085,-88.1395,79.88,11111222 
DISL,ioos:station:DISL:CATA:1,2019-08-12T17:44:00Z,30.3085,-88.1395,78.61,11111222 
DISL,ioos:station:DISL:CATA:1,2019-08-12T18:44:00Z,30.3085,-88.1395,76.7,11111222 
DISL,ioos:station:DISL:CATA:1,2019-08-12T19:44:00Z,30.3085,-88.1395,75.6,11111222 
DISL,ioos:station:DISL:CATA:1,2019-08-12T20:44:00Z,30.3085,-88.1395,72.07,11111222 
DISL,ioos:station:DISL:CATA:1,2019-08-12T21:44:00Z,30.3085,-88.1395,72.0,11111222 
DISL,ioos:station:DISL:CATA:1,2019-08-12T22:44:00Z,30.3085,-88.1395,71.35,11111222 
DISL,ioos:station:DISL:CATA:1,2019-08-12T23:44:00Z,30.3085,-88.1395,71.49,11111222 